Location: Newark
(34.6501°N, 117.8502°W)
Time: 23:59:42
(UTC+00:00)

N. Korean satellite - Visible Passes

Search period start: 16 October 2019 00:00
Search period end: 26 October 2019 00:00
Orbit: 455 x 508 km, 97.2° (Epoch: 16 October)

Date Brightness Start Highest point End Pass type
(mag) Time Alt. Az. Time Alt. Az. Time Alt. Az.
16 Oct 10.0 12:52:23 10° NE 12:54:40 16° E 12:56:59 10° SE visible
18 Oct 10.4 02:07:00 10° WSW 02:08:13 11° W 02:09:26 10° WNW visible
19 Oct 9.2 01:39:54 10° SSW 01:42:46 25° W 01:45:41 10° NW visible
19 Oct 9.1 13:09:07 10° NE 13:12:15 27° E 13:15:25 10° SSE visible
20 Oct 10.3 12:45:07 10° ENE 12:46:51 13° E 12:48:34 10° ESE visible
22 Oct 10.0 01:58:20 10° SW 02:00:20 15° W 02:02:20 10° WNW visible
22 Oct 7.8 13:26:14 10° NNE 13:29:46 49° E 13:33:21 10° S visible
23 Oct 8.6 01:31:48 10° SSW 01:34:54 32° W 01:38:03 10° NNW visible
23 Oct 9.5 13:01:31 10° NE 13:04:25 22° E 13:07:20 10° SSE visible
24 Oct 10.6 12:38:26 10° E 12:38:59 10° E 12:39:30 10° E visible
